Regional Weather Roundup
Issued by NWS

Home | Current Version | Previous Version | Text Only | Print | Product List | Glossary Off
Versions: 1 2 3 4 5 6 7 8 9 10 11 12 13 14 15 16 17 18 19 20 21 22 23 24 25 26 27 28 29 30 31 32 33 34 35 36 37 38 39 40 41 42 43 44

763
ASUS44 KJAN 051403
RWRMS

MISSISSIPPI HOURLY WEATHER ROUNDUP
NATIONAL WEATHER SERVICE JACKSON MS
800 AM CST THU MAR 05 2015

NOTE: "FAIR: INDICATES FEW OR NO CLOUDS BELOW 12,000 FEET WITH NO
SIGNIFICANT WEATHER AND/OR OBSTRUCTIONS TO VISIBILITY.

MSZ001>002-007>008-010>013-018>021-025>028-034>036-051500-
NORTHWEST MISSISSIPPI

CITY           SKY/WX    TMP DP  RH WIND       PRES   REMARKS
CLARKSDALE     PTSUNNY   23  19  86 CALM      30.45R
CLEVELAND      CLOUDY    24  21  87 N26G32    30.42R WCI   8
GREENWOOD      CLOUDY    26  22  84 N13G22    30.33R WCI  15
GREENVILLE     CLOUDY    25  19  78 MISG      30.41R
OXFORD         PTSUNNY   21  18  86 N14G22    30.32F WCI   8
TUNICA         FLURRIES  23  19  86 N10       30.46R WCI  12
$$

MSZ003>006-009-014>017-022>024-029>033-037>039-051500-
NORTHEAST MISSISSIPPI

CITY           SKY/WX    TMP DP  RH WIND       PRES   REMARKS
COLUMBUS AFB   SLEET     30  28  90 N15G23    30.23F WCI  19
CORINTH        CLOUDY    23  18  80 N16G22    30.30S WCI  10
GOLDN TRIANGLE FRZ RAIN N/A N/A N/A N20G25    30.20R
STARKVILLE     LGT SNOW  30  28  93 CALM      30.25S
TUPELO         CLOUDY    25  20  81 NE25G33   30.28S WCI   9
$$

MSZ040-058-051500-
CENTRAL MISSISSIPPI

CITY           SKY/WX    TMP DP  RH WIND       PRES   REMARKS
JACKSON INTL   RAIN      33  31  92 N12       30.25R FOG     WCI  24
JACKSON HAWKNS FRZ RAIN  32  30  92 N10G18    30.26  FOG     WCI  24
MERIDIAN KEY   LGT RAIN  35  34  96 N15       30.21S WCI  25
MERIDIAN NAS   LGT RAIN  34  31  88 N13       30.22R WCI  25
VICKSBURG      MIX PCPN  29  24  82 N13G25    30.38R WCI  19
$$

MSZ059>079-051500-
SOUTH MISSISSIPPI

CITY           SKY/WX    TMP DP  RH WIND       PRES   REMARKS
BROOKHAVEN     MIX PCPN  34  34 100 CALM      30.25R
HATTIESBURG    LGT RAIN  40  36  86 N14G24    30.21R WCI  32
MCCOMB         CLOUDY    34  32  92 N14G21    30.22R WCI  25
NATCHEZ        NOT AVBL
PINE BELT      CLOUDY    37  34  87 N13G18    30.21R WCI  29
$$

MSZ080>082-051500-
COASTAL MISSISSIPPI

CITY           SKY/WX    TMP DP  RH WIND       PRES   REMARKS
BAY ST LOUIS   CLOUDY    45  39  81 N17G29    30.16R
BILOXI         CLOUDY    50  50 100 N26G33    30.10R
PASCAGOULA     CLOUDY    57  54  89 N20G26    30.06R
GULFPORT       CLOUDY    48  45  89 NW23G36   30.11R
$$



USA.gov is the U.S. government's official web portal to all federal, state and local government web resources and services.